Tracking 28790 objects as of 19-Apr-2024
HD Live streaming from Space Station
objects crossing your sky now

IRIDIUM 33 DEB

Track IRIDIUM 33 DEB now!
10-day predictions


NORAD ID: 33873
Int'l Code: 1997-051AS
Perigee: 568.7 km
Apogee: 587.5 km
Inclination: 86.4 °
Period: 96.1 minutes
Semi major axis: 6949 km
RCS: 0.1366 m2 (medium)
Launch date: September 14, 1997
Source: United States (US)
Launch site: TYURATAM MISSILE AND SPACE COMPLEX (TTMTR)

Note: This is SATELLITE DEBRIS
Your satellite tracking list
Your tracking list is empty




NASA's NSSDC Master Catalog

Two Line Element Set (TLE):
1 33873U 97051AS  24110.37722304  .00159707  00000-0  12992-1 0  9995
2 33873  86.3510 237.6457 0013542 294.5407  65.4412 14.98679527804865
Source of the keplerian elements: AFSPC